Kinloss, United Kingdom

9:51 PM GMT on November 17, 2017 (GMT +0000)
Kinloss Air Base

Weather History for EGQK - March, 2013

Change the Weather History Date:

Tuesday, March 26, 2013

  Actual Average Record
Temperature  
Mean Temperature 34 °F -  
Max Temperature 43 °F 50 °F 68 °F (2012)
Min Temperature 26 °F 37 °F 23 °F (2001)
Degree Days  
Heating Degree Days 30    
Moisture  
Dew Point 24 °F    
Average Humidity 68    
Maximum Humidity 93    
Minimum Humidity 34    
Precipitation  
Precipitation 0.00 in 0.05 in - ()
Sea Level Pressure  
Sea Level Pressure 30.28 in    
Wind  
Wind Speed 5 mph ()    
Max Wind Speed 15 mph    
Max Gust Speed -    
Visibility 6.6 miles    
Events Snow    
Averages and records for this station are not official NWS values.
T = Trace of Precipitation, MM = Missing Value Source: Averaged Metar Reports

Daily Weather History Graph

Daily Weather History Graph

Search for Another Location

Airport or City:

Trip Planner

Search our weather history database for the weather conditions in past years. The results will help you decide how hot, cold, wet, or windy it might be!

Date:

Astronomy

Mar. 26, 2013 Rise Set
Actual Time 5:59 AM GMT 6:41 PM GMT
Civil Twilight 5:20 AM GMT 7:21 PM GMT
Nautical Twilight 4:32 AM GMT 8:08 PM GMT
Astronomical Twilight 3:40 AM GMT 9:01 PM GMT
Moon 6:02 PM GMT (3/26) 5:15 AM GMT (3/26)
Length of Visible Light 14h 01m
Length of Day
12h 42m
Waxing Gibbous, 99% of the Moon is Illuminated
Mar 26
Waxing Gibbous
Mar 27
Full
Apr 3
Last Quarter
Apr 10
New
Apr 18
First Quarter

Hourly Weather History & Observations

Time (GMT) Temp. Windchill Dew Point Humidity Pressure Visibility Wind Dir Wind Speed Gust Speed Precip Events Conditions
12:50 AM 32.0 °F - 28.4 °F 87% 30.33 in 6.2 mi East 2.3 mph - N/A   Overcast
1:50 AM 32.0 °F - 28.4 °F 87% 30.33 in 6.2 mi ESE 1.2 mph - N/A   Overcast
2:50 AM 31 °F - 27 °F 79% 30.33 in 22 mi ENE 4.6 mph - -   Overcast
2:50 AM 30.2 °F 25.4 °F 26.6 °F 86% 30.30 in 6.2 mi ENE 4.6 mph - N/A   Overcast
3:50 AM 32.0 °F 28.7 °F 28.4 °F 87% 30.30 in 6.2 mi ESE 3.5 mph - N/A   Mostly Cloudy
4:50 AM 30.2 °F 24.3 °F 28.4 °F 93% 30.30 in 6.2 mi ENE 5.8 mph - N/A   Mostly Cloudy
5:50 AM 31 °F - 27 °F 80% 30.32 in 14 mi ENE 5.8 mph - -   Unknown Precipitation
5:50 AM 30.2 °F 24.3 °F 26.6 °F 86% 30.30 in 6.2 mi ENE 5.8 mph - N/A   Mostly Cloudy
6:50 AM 32.0 °F 28.7 °F 28.4 °F 87% 30.30 in 6.2 mi ENE 3.5 mph - N/A   Overcast
7:50 AM 33.8 °F 29.6 °F 30.2 °F 87% 30.30 in 6.2 mi ENE 4.6 mph - N/A   Overcast
8:50 AM 36 °F - 27 °F 60% 30.32 in 31 mi ENE 6.9 mph - -   Overcast
8:50 AM 35.6 °F 29.9 °F 26.6 °F 70% 30.30 in 6.2 mi ENE 6.9 mph - N/A   Mostly Cloudy
9:50 AM 37.4 °F 30.8 °F 26.6 °F 65% 30.30 in 6.2 mi ESE 9.2 mph - N/A Snow Snow Showers
10:50 AM 39.2 °F 30.8 °F 26.6 °F 61% 30.30 in 6.2 mi East 15.0 mph - N/A   Mostly Cloudy
11:50 AM 41 °F - 22 °F 34% 30.29 in 28 mi ESE 13.8 mph - -   Scattered Clouds
11:50 AM 41.0 °F 33.5 °F 21.2 °F 45% 30.27 in 6.2 mi ESE 13.8 mph - N/A   Mostly Cloudy
12:50 PM 39.2 °F 30.8 °F 19.4 °F 45% 30.27 in 6.2 mi East 15.0 mph - N/A   Mostly Cloudy
1:50 PM 42.8 °F 36.2 °F 19.4 °F 39% 30.24 in 6.2 mi ESE 12.7 mph - N/A   Mostly Cloudy
2:50 PM 38 °F - 21 °F 37% 30.27 in 28 mi East 12.7 mph - -   Overcast
2:50 PM 39.2 °F 31.6 °F 21.2 °F 49% 30.24 in - East 12.7 mph - N/A   Clear
3:50 PM 39.2 °F 33.0 °F 21.2 °F 49% 30.24 in 6.2 mi East 9.2 mph - N/A   Mostly Cloudy
4:50 PM 37.4 °F 31.4 °F 23.0 °F 56% 30.24 in - East 8.1 mph - N/A   Clear
5:50 PM 37 °F - 24 °F 48% 30.26 in 25 mi SE 9.2 mph - -   Overcast
5:50 PM 37.4 °F 30.8 °F 24.8 °F 60% 30.24 in 6.2 mi SE 9.2 mph - N/A   Mostly Cloudy
6:50 PM 33.8 °F 30.8 °F 21.2 °F 60% 30.24 in 6.2 mi ESE 3.5 mph - N/A   Mostly Cloudy
7:50 PM 30.2 °F 24.3 °F 23.0 °F 75% 30.24 in - East 5.8 mph - N/A   Clear
8:50 PM 29 °F - 22 °F 65% 30.26 in 22 mi ENE 3.5 mph - -   Overcast
8:50 PM 28.4 °F 24.6 °F 21.2 °F 74% 30.24 in - ENE 3.5 mph - N/A   Clear
9:50 PM 28.4 °F - 23.0 °F 80% 30.24 in - Calm Calm - N/A   Clear
10:50 PM 26.6 °F 22.6 °F 21.2 °F 80% 30.24 in 6.2 mi SSE 3.5 mph - N/A   Mostly Cloudy
11:50 PM 27 °F - 22 °F 75% 30.25 in 22 mi North 1.2 mph - -   Overcast
11:50 PM 26.6 °F - 23.0 °F 86% 30.24 in 6.2 mi North 1.2 mph - N/A   Overcast